[[{"header":{"parameterUnit":"m.s-1","parameterCategory":1,"la1":30.2992,"la2":30.254,"lo1":-89.0895,"lo2":-89.0443,"dy":0.0025,"dx":0.0025,"nx":19,"ny":19,"refTime":"2026-04-18T09:00:00:Z","depth":0,"parameterNumber":2,"parameterNumberName":"U-component_of_WINDS"},"data":[0,0,0,-0.3474,-0.3472,-0.3364,-0.3364,-0.3229,-0.3227,0,0,0,0,0,0,0,0,0,0,0,-0.351,-0.351,-0.3475,-0.3472,-0.3364,-0.3364,-0.3229,-0.3227,0,0,0,0,0,0,0,0,0,0,0,-0.3511,-0.351,-0.3509,-0.3472,-0.3364,-0.3364,-0.3229,-0.3309,0,0,0,0,0,0,0,0,0,0,-0.3413,-0.3451,-0.351,-0.3509,-0.3471,-0.3364,-0.3364,-0.3313,-0.3304,-0.328,0,-0.3261,0,-0.3243,-0.3219,-0.3218,0,0,0,-0.3468,-0.3458,-0.3426,-0.3509,-0.347,-0.3365,-0.3412,-0.3308,-0.3298,-0.3268,-0.3259,-0.3254,-0.324,-0.3218,-0.3217,-0.3097,-0.3097,0,0,-0.3474,-0.3492,-0.3433,-0.342,-0.3439,-0.3415,-0.3408,-0.3302,-0.3292,-0.3259,-0.3251,-0.3238,-0.3217,-0.3216,-0.3098,-0.3097,0,0,0,-0.3494,-0.3497,-0.3467,-0.3425,-0.3406,-0.3412,-0.3404,-0.3297,-0.3286,-0.3249,-0.3236,-0.3216,-0.3215,-0.3098,-0.3098,-0.3098,0,0,0,-0.3497,-0.3508,-0.347,-0.348,-0.3408,-0.335,-0.3402,-0.3293,-0.3281,-0.3237,-0.3216,-0.3214,-0.3098,-0.3098,-0.3098,-0.3093,0,0,0,-0.3516,-0.351,-0.3496,-0.3481,-0.3436,-0.3352,-0.3334,-0.329,-0.3273,-0.3218,-0.3213,-0.3099,-0.3098,-0.3099,-0.3095,-0.3068,0,0,0,-0.354,-0.3496,-0.3497,-0.3442,-0.3437,-0.3354,-0.3335,-0.3271,-0.3225,-0.3216,-0.3098,-0.3098,-0.3099,-0.3095,-0.3069,-0.3047,-0.3041,0,0,-0.3494,-0.3491,-0.3457,-0.3455,-0.3378,-0.3369,-0.329,-0.3228,-0.3205,-0.3134,-0.3131,-0.3098,-0.3095,-0.3068,-0.2999,-0.2994,0,0,0,-0.3449,-0.3425,-0.3401,-0.3359,-0.3313,-0.3273,-0.3222,-0.32,-0.314,-0.3173,-0.3081,-0.3078,-0.3062,-0.305,-0.3046,-0.303,-0.3094,-0.3094,-0.3094,-0.3408,-0.3384,-0.3327,-0.329,-0.325,-0.32,-0.3164,-0.3125,-0.3109,-0.3088,-0.3066,-0.3028,-0.3016,-0.3013,-0.2996,-0.3054,-0.3054,-0.3054,-0.3054,-0.3337,-0.3299,-0.3284,-0.3224,-0.3198,-0.3145,-0.3096,-0.3087,-0.3034,-0.3042,-0.3026,-0.3036,-0.3008,-0.2992,-0.3054,-0.3054,-0.3054,-0.3054,-0.3054,-0.3306,-0.3284,-0.326,-0.3199,-0.3154,-0.3118,-0.3069,-0.3046,-0.3024,-0.3009,-0.2983,-0.2983,-0.2979,-0.2999,-0.2999,-0.2999,-0.2999,-0.2998,-0.2998,-0.3283,-0.3257,-0.3219,-0.3169,-0.3141,-0.31,-0.3051,-0.3021,-0.2982,-0.297,-0.2969,-0.2956,-0.3011,-0.3024,-0.2996,-0.2996,-0.2997,-0.2997,-0.2997,-0.3218,-0.323,-0.3172,-0.3144,-0.3085,-0.3042,-0.3016,-0.2958,-0.293,-0.2906,-0.2897,-0.2942,-0.2935,-0.2939,-0.295,-0.2904,-0.2904,-0.2904,-0.2903,-0.3191,-0.3188,-0.3124,-0.3081,-0.3035,-0.3007,-0.2941,-0.2903,-0.2865,-0.2846,-0.285,-0.2863,-0.2868,-0.2858,-0.2863,-0.2873,-0.2809,-0.2808,-0.2808,-0.3149,-0.3141,-0.3089,-0.3056,-0.3009,-0.2968,-0.2905,-0.2854,-0.2813,-0.2804,-0.283,-0.2834,-0.2856,-0.2864,-0.2853,-0.2861,-0.2878,0,0]},{"header":{"parameterUnit":"m.s-1","parameterCategory":1,"la1":30.2992,"la2":30.254,"lo1":-89.0895,"lo2":-89.0443,"dy":0.0025,"dx":0.0025,"nx":19,"ny":19,"refTime":"2026-04-18T09:00:00:Z","depth":0,"parameterNumber":3,"parameterNumberName":"V-component_of_WINDS"},"data":[0,0,0,5.5754,5.5757,5.5885,5.5885,5.6048,5.605,0,0,0,0,0,0,0,0,0,0,0,5.572,5.5722,5.5754,5.5757,5.5885,5.5885,5.6048,5.605,0,0,0,0,0,0,0,0,0,0,0,5.572,5.5721,5.5723,5.5758,5.5885,5.5885,5.6048,5.595,0,0,0,0,0,0,0,0,0,0,5.5826,5.58,5.5721,5.5723,5.5759,5.5884,5.5885,5.5946,5.5957,5.5992,0,5.6028,0,5.6042,5.6061,5.6062,0,0,0,5.5753,5.5791,5.5822,5.5723,5.576,5.5884,5.5826,5.5952,5.5964,5.6006,5.603,5.6036,5.6045,5.6062,5.6063,5.6292,5.6293,0,0,5.5746,5.5744,5.5814,5.583,5.5815,5.5822,5.583,5.5959,5.5983,5.6031,5.604,5.6047,5.6063,5.6065,5.6291,5.6292,0,0,0,5.5729,5.5739,5.5768,5.5824,5.5847,5.5826,5.5835,5.5977,5.5987,5.6042,5.6049,5.6064,5.6066,5.6289,5.6291,5.6354,0,0,0,5.5724,5.5729,5.5765,5.5765,5.5845,5.5915,5.5851,5.5978,5.5993,5.6048,5.6064,5.6068,5.6288,5.629,5.6349,5.6383,0,0,0,5.5711,5.5728,5.5748,5.5764,5.582,5.5913,5.593,5.5981,5.5998,5.6062,5.6068,5.6287,5.629,5.6345,5.6376,5.6444,0,0,0,5.5694,5.5798,5.5749,5.5868,5.5819,5.5952,5.5929,5.6027,5.6089,5.6065,5.6288,5.6291,5.6344,5.6372,5.644,5.6501,5.6527,0,0,5.5824,5.5814,5.5885,5.5844,5.5987,5.5933,5.6083,5.6139,5.6144,5.6241,5.6247,5.6351,5.6376,5.6443,5.6672,5.6692,0,0,0,5.5925,5.5976,5.6014,5.6076,5.6126,5.617,5.6205,5.6226,5.631,5.6196,5.6394,5.6408,5.6448,5.6477,5.6495,5.6529,5.6305,5.6304,5.6304,5.6104,5.6111,5.6228,5.6251,5.6311,5.6348,5.6397,5.6431,5.6415,5.6462,5.6491,5.6629,5.6664,5.6677,5.6713,5.6524,5.6524,5.6524,5.6524,5.6296,5.6369,5.6352,5.646,5.6465,5.6553,5.6593,5.658,5.6662,5.6607,5.6642,5.6582,5.6699,5.6731,5.6529,5.6528,5.6528,5.6527,5.6527,5.6414,5.645,5.6478,5.6571,5.6641,5.6659,5.674,5.674,5.674,5.6775,5.6806,5.6805,5.6804,5.679,5.6791,5.6791,5.6792,5.6792,5.6792,5.6525,5.6555,5.6626,5.669,5.6732,5.6786,5.6827,5.6866,5.6909,5.6903,5.6903,5.6883,5.6711,5.6667,5.68,5.6799,5.6798,5.6797,5.6796,5.6716,5.6674,5.6784,5.6827,5.6903,5.6973,5.6974,5.7056,5.7088,5.7128,5.7102,5.6975,5.6962,5.6949,5.6913,5.7101,5.7101,5.7101,5.7101,5.6816,5.6811,5.6926,5.6994,5.706,5.7073,5.7195,5.7228,5.7254,5.7275,5.7247,5.72,5.7186,5.7182,5.7163,5.7129,5.7369,5.7369,5.7369,5.6934,5.6937,5.7042,5.7073,5.7133,5.7185,5.73,5.7376,5.7396,5.738,5.729,5.7279,5.7203,5.7177,5.7157,5.7128,5.7067,0,0]}]]